Tracking 19817 objects as of 21-Aug-2019
HD Live streaming from Space Station
objects crossing your sky now

GLOBALSTAR M047

Track GLOBALSTAR M047 now!
10-day predictions
GLOBALSTAR M047 is classified as:


NORAD ID: 25772
Int'l Code: 1999-031C
Perigee: 1,994.8 km
Apogee: 2,021.5 km
Inclination: 52.0 °
Period: 127.2 minutes
Semi major axis: 8379 km
RCS: 2.931 m2 (large)
Launch date: June 10, 1999
Source: Globalstar (GLOB)
Launch site: AIR FORCE EASTERN TEST RANGE (AFETR)
aabbcc
Your satellite tracking list
Your tracking list is empty




NASA's NSSDC Master Catalog

Two Line Element Set (TLE):
1 25772U 99031C   19231.90075723 -.00000058 +00000-0 +30997-3 0  9999
2 25772 051.9815 177.5371 0015936 209.4636 150.5273 11.31895603230105
Source of the keplerian elements: AFSPC